VK2TRB Weather Reports


Display with metric or nautical units.
time (UTC)temp
F
wind
direction
speed
MPH
gust
MPH
rain 1hr
in
rain 24hr
in
rain mn
in
humidity
%
barometer
mb
20260503110338 64 24 3.0 5.0 0.07 0.12 0.07 94 1011.8
20260503090338 65 323 1.0 5.0 0.07 0.12 0.07 92 1011.6
20260503080339 65 335 0.0 5.0 0.07 0.12 0.07 91 1011.5
20260503071839 66 296 0.0 5.0 0.07 0.12 0.07 88 1011.3
20260503070338 66 296 0.0 5.0 0.07 0.12 0.07 87 1010.7
20260503060340 69 304 3.0 5.0 0.07 0.12 0.07 78 1010.0
20260503054839 70 296 3.0 5.0 0.07 0.12 0.07 73 1010.5
20260503053339 71 311 3.0 5.0 0.07 0.12 0.07 70 1010.7
20260503051839 71 292 4.0 5.0 0.07 0.12 0.07 70 1010.7
20260503050340 71 318 6.0 5.0 0.07 0.12 0.07 69 1010.6
20260503044840 72 5 5.0 5.0 0.07 0.12 0.07 67 1010.7
20260503043340 72 355 5.0 5.0 0.07 0.12 0.07 65 1010.7
20260503041839 73 335 2.0 5.0 0.07 0.12 0.07 64 1010.8
20260503040340 72 10 4.0 5.0 0.07 0.12 0.07 65 1010.8
20260503034840 73 5 2.0 5.0 0.07 0.12 0.07 64 1011.1
20260503033339 73 342 4.0 5.0 0.07 0.12 0.07 63 1011.3
20260503031840 73 342 6.0 5.0 0.07 0.12 0.07 61 1011.4
20260503030340 74 331 7.0 5.0 0.07 0.12 0.07 60 1011.5
20260503024840 74 10 9.0 5.0 0.07 0.12 0.07 61 1011.7
20260503023340 75 11 5.0 5.0 0.07 0.12 0.07 60 1011.9
20260503021839 74 5 7.0 5.0 0.07 0.12 0.07 61 1012.0
20260503020340 74 15 5.0 5.0 0.07 0.12 0.07 61 1012.3
20260503014841 73 350 4.0 5.0 0.07 0.12 0.07 61 1012.4
20260503013340 72 5 6.0 5.0 0.07 0.12 0.07 62 1012.5
20260503011841 72 5 5.0 5.0 0.07 0.12 0.07 60 1012.8
20260503010340 71 355 5.0 5.0 0.07 0.12 0.07 62 1013.0
20260503004840 71 312 6.0 5.0 0.07 0.12 0.07 63 1013.2
20260503001839 69 25 6.0 5.0 0.07 0.12 0.07 68 1013.7
20260503000341 68 5 7.0 5.0 0.07 0.12 0.07 69 1014.0
20260502234839 68 351 4.0 5.0 0.07 0.12 0.07 69 1014.2
20260502233341 67 339 1.0 5.0 0.07 0.12 0.07 69 1014.4
20260502231840 67 13 2.0 5.0 0.07 0.12 0.07 69 1014.5
20260502230340 67 49 5.0 5.0 0.07 0.12 0.07 69 1014.3